Change the Weather History Date:

Friday, December 28, 2012

  Actual Average Record
Temperature  
Mean Temperature 44 °F -  
Max Temperature 59 °F 43 °F 59 °F (2012)
Min Temperature 28 °F 24 °F 14 °F (1996)
Degree Days  
Heating Degree Days 22    
Moisture  
Dew Point 31 °F    
Average Humidity 73    
Maximum Humidity 100    
Minimum Humidity 22    
Precipitation  
Precipitation 0.00 in 0.09 in - ()
Sea Level Pressure  
Sea Level Pressure 30.20 in    
Wind  
Wind Speed 3 mph ()    
Max Wind Speed 6 mph    
Max Gust Speed -    
Visibility 0.9 miles    
Events Fog    
Averages and records for this station are not official NWS values.
T = Trace of Precipitation, MM = Missing Value Source: Averaged Metar Reports

Daily Weather History Graph

Daily Weather History Graph

Search for Another Location

Airport or City:

Trip Planner

Search our weather history database for the weather conditions in past years. The results will help you decide how hot, cold, wet, or windy it might be!

Date:

Astronomy

Dec. 28, 2012 Rise Set
Actual Time 8:05 AM CET 4:48 PM CET
Civil Twilight 7:30 AM CET 5:22 PM CET
Nautical Twilight 6:53 AM CET 6:00 PM CET
Astronomical Twilight 6:17 AM CET 6:36 PM CET
Moon 5:13 PM CET (12/28) 7:45 AM CET (12/28)
Length of Visible Light 9h 51m
Length of Day
8h 43m
Full, 100% of the Moon is Illuminated
Dec 28
Full
Jan 5
Last Quarter
Jan 11
New
Jan 19
First Quarter
Jan 27
Full

Hourly Weather History & Observations

Time (CET) Temp. Windchill Dew Point Humidity Pressure Visibility Wind Dir Wind Speed Gust Speed Precip Events Conditions
12:20 AM 30.2 °F 26.7 °F 30.2 °F 100% 30.01 in 3.7 mi SW 3.5 mph - N/A Fog Unknown
12:50 AM 32.0 °F - 32.0 °F 100% 30.04 in 0.5 mi Variable 2.3 mph - N/A   Unknown
1:20 AM 32.0 °F 27.5 °F 32.0 °F 100% 30.04 in 0.1 mi SSW 4.6 mph - N/A Fog Fog
1:50 AM 32.0 °F 28.7 °F 32.0 °F 100% 30.04 in 0.1 mi SSW 3.5 mph - N/A Fog Fog
2:20 AM 32.0 °F 28.7 °F 32.0 °F 100% 30.06 in 0.1 mi WSW 3.5 mph - N/A Fog Fog
2:50 AM 32.0 °F - 32.0 °F 100% 30.06 in 0.1 mi Variable 1.2 mph - N/A Fog Fog
3:20 AM 32.0 °F 28.7 °F 32.0 °F 100% 30.09 in 0.1 mi WSW 3.5 mph - N/A Fog Light Freezing Fog
3:50 AM 32.0 °F - 32.0 °F 100% 30.09 in 0.1 mi Calm Calm - N/A Fog Light Freezing Fog
4:20 AM 30.2 °F - 30.2 °F 100% 30.09 in 0.1 mi Variable 1.2 mph - N/A Fog Light Freezing Fog
4:50 AM 28.4 °F - 28.4 °F 100% 30.09 in 0.1 mi Variable 2.3 mph - N/A Fog Light Freezing Fog
5:20 AM 28.4 °F - 28.4 °F 100% 30.12 in 1.9 mi Variable 1.2 mph - N/A   Mist
5:50 AM 28.4 °F 22.2 °F 28.4 °F 100% 30.12 in 3.7 mi North 5.8 mph - N/A   Unknown
6:20 AM 30.2 °F 25.4 °F 30.2 °F 100% 30.12 in - NNW 4.6 mph - N/A   Clear
6:50 AM 30.2 °F - 30.2 °F 100% 30.15 in - Variable 1.2 mph - N/A   Clear
7:20 AM 30.2 °F - 30.2 °F 100% 30.15 in - Calm Calm - N/A   Clear
7:50 AM 32.0 °F 28.7 °F 32.0 °F 100% 30.18 in - WNW 3.5 mph - N/A   Clear
8:20 AM 33.8 °F 29.6 °F 33.8 °F 100% 30.18 in - NNW 4.6 mph - N/A   Clear
8:50 AM 37.4 °F 32.8 °F 35.6 °F 93% 30.21 in - North 5.8 mph - N/A   Clear
9:20 AM 42.8 °F 41.1 °F 37.4 °F 81% 30.18 in - Variable 3.5 mph - N/A   Clear
9:50 AM 44.6 °F 43.1 °F 37.4 °F 76% 30.21 in - Variable 3.5 mph - N/A   Clear
10:20 AM 46.4 °F - 41.0 °F 81% 30.24 in - Variable 1.2 mph - N/A   Clear
10:50 AM 50.0 °F - 37.4 °F 62% 30.24 in - Variable 1.2 mph - N/A   Clear
11:20 AM 51.8 °F - 37.4 °F 58% 30.24 in - Variable 2.3 mph - N/A   Clear
11:50 AM 53.6 °F - 35.6 °F 51% 30.21 in - North 4.6 mph - N/A   Clear
12:20 PM 55.4 °F - 32.0 °F 41% 30.21 in - North 4.6 mph - N/A   Clear
12:50 PM 57.2 °F - 28.4 °F 33% 30.21 in - North 4.6 mph - N/A   Clear
1:20 PM 59.0 °F - 28.4 °F 31% 30.21 in - North 3.5 mph - N/A   Clear
1:50 PM 59.0 °F - 23.0 °F 25% 30.21 in - NNE 4.6 mph - N/A   Clear
2:20 PM 59.0 °F - 23.0 °F 25% 30.21 in - NNE 4.6 mph - N/A   Clear
2:50 PM 59.0 °F - 19.4 °F 22% 30.21 in - NNE 3.5 mph - N/A   Clear
3:20 PM 59.0 °F - 19.4 °F 22% 30.21 in - North 3.5 mph - N/A   Clear
3:50 PM 57.2 °F - 26.6 °F 31% 30.24 in - WNW 2.3 mph - N/A   Clear
4:20 PM 50.0 °F - 37.4 °F 62% 30.24 in - WSW 4.6 mph - N/A   Clear
4:50 PM 48.2 °F - 37.4 °F 66% 30.24 in - Variable 2.3 mph - N/A   Clear
5:20 PM 50.0 °F - 33.8 °F 54% 30.24 in - Variable 2.3 mph - N/A   Clear
5:50 PM 46.4 °F - 32.0 °F 57% 30.27 in - Calm Calm - N/A   Clear
6:20 PM 46.4 °F - 30.2 °F 53% 30.27 in - Variable 2.3 mph - N/A   Clear
6:50 PM 48.2 °F - 28.4 °F 46% 30.27 in - Variable 1.2 mph - N/A   Clear
7:20 PM 39.2 °F - 28.4 °F 65% 30.27 in - Variable 1.2 mph - N/A   Clear
7:50 PM 35.6 °F - 30.2 °F 81% 30.30 in - North 2.3 mph - N/A   Clear
8:20 PM 37.4 °F 34.9 °F 28.4 °F 70% 30.30 in - North 3.5 mph - N/A   Clear
8:50 PM 37.4 °F - 30.2 °F 75% 30.30 in - Variable 2.3 mph - N/A   Clear
9:20 PM 41.0 °F - 28.4 °F 61% 30.30 in - North 2.3 mph - N/A   Clear
9:50 PM 35.6 °F - 30.2 °F 81% 30.33 in - Variable 2.3 mph - N/A   Clear
10:20 PM 33.8 °F - 26.6 °F 75% 30.36 in - Variable 2.3 mph - N/A   Clear
10:50 PM 35.6 °F 32.8 °F 28.4 °F 75% 30.36 in - North 3.5 mph - N/A   Clear
11:20 PM 33.8 °F - 28.4 °F 81% 30.36 in - Variable 1.2 mph - N/A   Clear
11:50 PM 33.8 °F - 28.4 °F 81% 30.36 in - Variable 1.2 mph - N/A   Clear